ARIANE 5 DEB (SYLDA), 44478

Orbit data source: Space-Track

ARIANE 5 DEB (SYLDA), 44478 is space debris originally from a launch on Tue, 06 Aug 2019 UTC launched from the French Guiana (FRGUI). Debris objects in space refer to the collection of defunct objects orbiting the Earth. Examples of debris include non-operational satellites, rocket bodies, and fragments generated from explosions, collisions, or faulty payload assembly.

Loading next visibility...
Identifier
44478, 2019-049D
Orbit
Active
Country
Flag of FRFR
Related business
Manufacturer
ADS/Bremen
Mission
Spacecraft
Bus & Motor
SYLDA 5, Unknown motor
Mass
440 kg wet, 440 kg dry
Launch date (UTC)
2019-08-06 (6 years ago)
Launch vehicle
Unknown
Launch site
French Guiana (FRGUI)
Object type
Payload
Rocket body
Debris
Shape & HBR
Cyl, 2.8 m
Radar Cross Section
27.391 m², Large (>1 m²)

Expand to show TLE details & history
Last TLE update: 2 days ago

TLE from 2 days ago
0 ARIANE 5 DEB (SYLDA)
1 44478U 19049D   25259.57634937  .00355903  00000-0  58762-2 0  9992
2 44478   4.3251 303.7172 3318692  66.9708 324.4066  8.83739059 98155
Epoch: 2025-09-16T13:49Z
TLE epoch observation values (Epoch: 2025-09-16T13:49:56.585Z)
Latitude
-0.00001°
Longitude
100.46669°
Altitude
1,402.759 km
Speed
7.882 km/s
True Right ascension
20h 14m 52s
True Declination
0° 00' 00"
Sunlit
Object was in full shadow at epoch
Visualization orbit readout
Latitude
Unknown
Longitude
Unknown
Altitude
Unknown
Speed
Unknown
Apparent Right ascension
Unknown
Apparent Declination
Unknown
Sunlit
N/A
Visualization observer readout
Local Sidereal Time
19:56:55
Azimuth
Unknown
Elevation
Unknown
Doppler factor
Unknown
Orbital elements
Apogee altitude
6,790.647 km
Perigee altitude
227.97 km
Semi-major axis
9,887.446 km
Eccentricity
0.33187
Inclination
4.3251°
RAAN
303.7172°
Arg. of periapsis
66.9708°
True anomaly
293.03741°
Mean anomaly
324.4066°
Eccentric anomaly
309.79735°
Mean motion
2.20758 °/min
Orbital period
163.07 mins
BSTAR
0.0058762
Loading maneuver chart data...
Computing Atmospheric mass density...
Loading historical data...
Loading historical data...
Loading historical data...
Loading historical data...
Loading historical data...
Loading historical data...
Loading historical data...
Other satellites on launch #49 in the year 2019 (2019-08-06 UTC)

Documentation

Showing up to 5 results
|